Regional Weather Roundup
Issued by NWS

Home | Current Version | Previous Version | Text Only | Print | Product List | Glossary Off
Versions: 1 2 3 4 5 6 7 8 9 10 11 12 13 14 15 16 17 18 19 20 21 22 23 24 25 26 27 28 29 30 31 32 33 34 35 36 37 38 39 40 41 42 43 44 45 46 47 48 49 50

000
ASUS43 KMPX 230801
RWRMN
WEATHER ROUNDUP FOR MINNESOTA
NATIONAL WEATHER SERVICE TWIN CITIES/CHANHASSEN MN
300 AM CDT SAT JUL 23 2016


NOTE: "FAIR" INDICATES FEW OR NO CLOUDS BELOW 12,000 FEET WITH NO
SIGNIFICANT WEATHER AND/OR OBSTRUCTIONS TO VISIBILITY. N/A MEANS
CURRENT SKY AND/OR WEATHER CONDITIONS ARE NOT AVAILABLE.

MNZ060>063-068>070-230900-
   Twin Cities Metro

CITY           SKY/WX    TMP DP  RH WIND       PRES   REMARKS
TWIN CITIES    MOCLDY    77  66  68 E7        29.95F
ST PAUL        CLEAR     73  68  84 CALM      29.95F
CRYSTAL        CLEAR     70  64  81 CALM      29.95F
BLAINE         PTCLDY    72  68  88 CALM      29.96F
LAKEVILLE      CLEAR     68  68 100 CALM      29.95F
EDEN PRAIRIE   CLEAR     76  67  73 E3        29.94F
LAKEVILLE      CLEAR     68  68 100 CALM      29.95F
SOUTH ST PAUL  CLEAR     73  67  82 CALM      29.95F
LAKE ELMO      FAIR      68  66  94 CALM      29.98F
$$
MNZ001>005-007-008-013>017-022>024-027-028-230900-
   Northwest Minnesota

CITY           SKY/WX    TMP DP  RH WIND       PRES   REMARKS
BEMIDJI        CLOUDY    64  63  94 CALM      30.02S
HALLOCK        CLOUDY    66  63  88 E6        29.96S
ROSEAU         CLOUDY    61  55  82 CALM      29.99S
WARROAD        CLOUDY    63  59  88 CALM      30.00F
THIEF RVR FALL CLOUDY    69  61  75 E8        29.98F
CROOKSTON      CLOUDY    72  63  73 E6        29.96F
FOSSTON        CLOUDY    64  63  94 E3        30.00S
DETROIT LAKES  CLOUDY    73  61  64 E6        30.00S
MOORHEAD       CLOUDY    73  66  78 E8        29.93F
PARK RAPIDS    CLOUDY    71  64  78 E6        30.00F
MAHNOMEN       FAIR      68  64  85 E7        29.98S
$$
MNZ006-009>011-018-025>026-230900-
   North Central Minnesota

CITY           SKY/WX    TMP DP  RH WIND       PRES   REMARKS
BAUDETTE       PTCLDY    62  59  90 NE3       30.00F
FLAG ISLAND    CLOUDY    70  63  78 CALM      30.00R
INTL FALLS     CLOUDY    56  55  97 CALM      30.01S
WASKISH        CLOUDY    61  59  94 CALM      30.01S
BIG FORK       CLOUDY    57  57 100 CALM      30.03R
LONGVILLE      CLOUDY    64  63  94 CALM      30.01S
GRAND RAPIDS   PTCLDY    62  61  96 CALM      30.04R
ORR            CLOUDY    57  54  88 CALM      30.00S
COOK           PTCLDY    57  57 100 CALM      30.03R
WALKER         FAIR      63  62  97 CALM      30.02S
$$
MNZ012-019>021-037-230900-
   Northeast Minnesota

CITY           SKY/WX    TMP DP  RH WIND       PRES   REMARKS
DULUTH         CLEAR     67  61  81 CALM      30.01S
ELY            MOCLDY    57  54  88 CALM      30.02S
HIBBING        PTCLDY    56  56 100 NW3       30.02S
EVELETH        MOCLDY    58  57  97 CALM      30.03S
DULUTH HARBOR  PTCLDY    72  66  83 CALM      29.99S
TWO HARBORS    CLOUDY    68  61  77 CALM      29.98S
SILVER BAY     PTCLDY    57  57 100 CALM      29.98S
GRAND MARAIS     N/A     73  55  53 N12       29.95S
G MARAIS ARPRT PTCLDY    57  54  88 NW5       30.03S
$$
MNZ029>031-032-039>041-046>048-054>057-064-230900-
   West Central Minnesota

CITY           SKY/WX    TMP DP  RH WIND       PRES   REMARKS
FERGUS FALLS   PTCLDY    75  68  78 E7        29.96S
WHEATON        CLOUDY    72  70  94 E9        29.94F
MORRIS         MOCLDY    73  68  83 E8        29.93F
ALEXANDRIA     CLOUDY    73  69  87 E8        29.99F
ELBOW LAKE     FAIR      75  69  82 E7        29.96S
WADENA         MOCLDY    70  64  83 E5        29.99F
GLENWOOD       CLOUDY    70  66  88 NE6       29.98S
APPLETON       CLOUDY    73  66  78 NE3       29.92S
BENSON         CLOUDY    72  64  78 E7        29.93S
ORTONVILLE     PTCLDY    73  68  83 E3        29.92S
MADISON        CLOUDY    72  70  94 CALM      29.92S
WILLMAR        FAIR      75  66  73 E6        29.95S
$$
MNZ033>034-036-042>043-049>051-058-059-230900-
   Central Minnesota

CITY           SKY/WX    TMP DP  RH WIND       PRES   REMARKS
ST CLOUD       MOCLDY    71  67  87 E5        29.97F
SAUK CENTRE    FAIR      73  67  81 NE7       29.97F
PAYNESVILLE    MOCLDY    69  69 100 CALM      29.97S
AITKIN         PTCLDY    64  61  88 CALM      30.00S
PINE RIVER     CLOUDY    64  64 100 CALM      30.05R
BRAINERD       PTCLDY    69  66  90 CALM      30.01R
STAPLES        CLOUDY    68  63  83 CALM      29.99F
LONG PRAIRIE   FAIR      70  68  94 CALM      29.99F
LITTLE FALLS   CLOUDY    68  64  88 CALM      29.99S
LITCHFIELD     CLEAR     73  70  88 E3        29.95F
BUFFALO        PTCLDY    70  64  83 CALM      29.97S
MAPLE LAKE     PTCLDY    70  67  92 CALM      29.97F
HUTCHINSON     CLOUDY    74  68  82 E6        29.95F
$$
MNZ037-044-045-052-053-230900-
   East Central Minnesota

CITY           SKY/WX    TMP DP  RH WIND       PRES   REMARKS
PRINCETON      MOCLDY    70  68  94 NE5       29.98S
MORA           PTCLDY    68  68 100 CALM      30.01F
CAMBRIDGE      MOCLDY    72  64  78 CALM      29.96F
RUSH CITY      MOCLDY    68  66  94 CALM      29.98F
MOOSE LAKE     MOCLDY    63  61  94 CALM      30.00R FOG
HINCKLEY       FAIR      66  66 100 N7        30.00R
CLOQUET        PTCLDY    63  57  82 CALM      30.02R
MCGREGOR       PTCLDY    66  64  94 CALM      30.02R
$$
MNZ071>073-080-081-089-090-097-098-230900-
   Southwest Minnesota

CITY           SKY/WX    TMP DP  RH WIND       PRES   REMARKS
MONTEVIDEO     CLOUDY    72  70  94 SE3       29.94F
GRANITE FALLS  CLOUDY    75  70  85 E5        29.93F
CANBY          MOCLDY    72  69  90 CALM      29.94R
MARSHALL       PTCLDY    75  72  90 SE6       29.92F
REDWOOD FALLS  MOCLDY    75  70  84 E7        29.92F
OLIVIA         CLOUDY    73  66  78 E5        29.92F
PIPESTONE      PTCLDY    79  77  94 SE7       29.92F
WINDOM         PTCLDY    79  75  89 E6        29.93F
WORTHINGTON    CLOUDY    78  77  96 E8        29.92F FOG
JACKSON        CLOUDY    79  75  89 SE8       29.95F FOG
TRACY          CLOUDY    74  73  95 CALM      29.94S
SLAYTON        CLOUDY    77  76  98 SE9       29.94F FOG
$$
MNZ065>067-074>077-082>085-091>093-230900-
   South Central Minnesota

CITY           SKY/WX    TMP DP  RH WIND       PRES   REMARKS
MANKATO        CLEAR     77  72  83 E6        29.94F
NEW ULM        PTCLDY    77  75  94 E5        29.93F
ST JAMES       PTCLDY    73  72  94 SE5       29.94F
FAIRMONT       CLOUDY    79  72  78 E7        29.93F
GLENCOE        CLEAR     74  69  83 E3        29.94F
FARIBAULT      CLEAR     73  72  94 CALM      29.96F
OWATONNA       CLEAR     77  73  88 E3        29.97S
WASECA         CLEAR     77  75  94 E7        29.96F
ALBERT LEA     PTCLDY    79  75  89 SE7       29.97F
$$
MNZ078>079-086>088-094>096-230900-
   Southeast Minnesota

CITY           SKY/WX    TMP DP  RH WIND       PRES   REMARKS
ROCHESTER      PTCLDY    75  75 100 E5        29.99F FOG
RED WING       PTCLDY    68  66  94 CALM      29.95F
STANTON        CLEAR     72  66  83 CALM      29.95F
DODGE CENTER   CLOUDY    73  72  94 NE3       29.99S FOG
WINONA         PTCLDY    73  72  94 CALM      29.98S
AUSTIN         PTCLDY    75  73  94 CALM      29.98S
PRESTON        MOCLDY    75  73  93 CALM      30.00S FOG
$$
ABBREVIATIONS USED IN REMARKS
   TC - TEMPERATURES IN CELSIUS
  WCI - WIND CHILL INDEX
   HX - HEAT INDEX
  VSB - VISIBILITY
$$




USA.gov is the U.S. government's official web portal to all federal, state and local government web resources and services.